Flag for U.S.A. Weather past 2 weeks in Fort Worth, Texas, U.S.A.

Now
66 °F

Clear.


Feels Like: 66 °F
Forecast: 65 / 91 °F
Wind: 6 mph from South

Location: Meacham International Airport

Current Time: Oct 25, 2014 at 6:13:21 AM

Latest Report: Oct 25, 2014 at 5:53 AM


Visibility: 10 mi

Pressure: 30.06 "Hg

Humidity: 75%

Dew point: 58 °F

Location of Fort WorthLocation

Historic Weather in Fort Worth — Graph

°F

Fort Worth temperature yesterday

Maximum temperature yesterday: 86 °F (at 3:53 PM)
Minimum temperature yesterday: 62 °F (at 5:53 AM)
Average temperature yesterday: 73 °F

Past Weeks' High & Low Weather Summary

 TemperatureHumidityPressure
High93 °F (Oct 10, 3:53 PM)93% (Oct 11, 1:53 AM)30.14 "Hg (Oct 11, 1:53 AM)
Low52 °F (Oct 12, 6:53 AM)18% (Oct 16, 4:53 PM)29.57 "Hg (Oct 13, 12:53 AM)
Average70 °F60%29.98 "Hg
* Reported Oct 10 4:53 AM — Oct 25 4:53 AM, Fort Worth, Weather by CustomWeather, © 2014

Note: Actual official high and low records may vary slightly from our data, if they occured in-between our weather recording intervals... More about our weather records

Advertising

Fort Worth weather history for previous 24 hours

 ConditionsComfort  
Time TempWeatherWind HumidityBarometerVisibility
4:53 AM
Oct 25
67 °FClear.7 mph76%30.06 "Hg10 mi
3:53 AM67 °FClear.7 mph76%30.06 "Hg10 mi
2:53 AM69 °FClear.8 mph70%30.06 "Hg10 mi
1:53 AM70 °FClear.8 mph68%30.06 "Hg10 mi
12:53 AM71 °FClear.9 mph66%30.06 "Hg10 mi
11:53 PM
Oct 24
73 °FClear.12 mph64%30.06 "Hg10 mi
10:53 PM72 °FClear.8 mph66%30.06 "Hg10 mi
9:53 PM75 °FClear.9 mph60%30.06 "Hg10 mi
8:53 PM75 °FClear.6 mph60%30.05 "Hg10 mi
7:53 PM78 °FClear.9 mph54%30.04 "Hg10 mi
6:53 PM80 °FSunny.9 mph51%30.03 "Hg10 mi
5:53 PM84 °FSunny.9 mph45%30.03 "Hg10 mi
4:53 PM85 °FSunny.7 mph42%30.04 "Hg10 mi
3:53 PM86 °FSunny.6 mph42%30.03 "Hg10 mi
2:53 PM84 °FSunny.8 mph46%30.05 "Hg10 mi
1:53 PM82 °FSunny.8 mph49%30.08 "Hg10 mi
12:53 PM80 °FSunny.9 mph51%30.11 "Hg10 mi
11:53 AM77 °FSunny.10 mph54%30.13 "Hg10 mi
10:53 AM73 °FSunny.12 mph57%30.14 "Hg10 mi
9:53 AM70 °FPartly sunny.9 mph61%30.14 "Hg10 mi
8:53 AM66 °FPassing clouds.7 mph70%30.12 "Hg10 mi
7:53 AM63 °FClear.8 mph75%30.11 "Hg10 mi
6:53 AM63 °FPassing clouds.6 mph78%30.10 "Hg10 mi
Weather by CustomWeather, © 2014

See weather overviewHow to use our weather pages